COSMOS 2475 (743)

Last updated on Wed Jul 09 2025 00:03:15 GMT+0000 (Coordinated Universal Time)

1 37869U 11064C 25189.54267728 -.00000026 00000+0 00000+0 0 9998 2 37869 65.0863 84.5849 0024544 252.8646 296.0087 2.13102007106446
UTC large
Height (km)
Speed (km/s)
/
Latitude / Longitude
Inclination (degrees)
Orbital Period (minutes)
Azimuth
Elevation
Range (km)
Doppler Factor

Next 0 passes for location: London (51.5072 / 0.1276)

Sorry there are no passes over London.